CW6344 Weather Reports


time (UTC)temp
F
wind
direction
speed
knots
gust
knots
rain 1hr
in
rain 24hr
in
rain mn
in
humidity
%
barometer
mb
20260504110459 55 222 0.0 0.9 0.00 0.00 0.00 65 1015.6
20260504100459 53 219 0.0 0.9 0.00 0.00 0.00 70 1015.5
20260504081459 53 219 0.0 0.0 0.00 0.00 0.00 71 1015.7
20260504080459 53 219 0.0 0.0 0.00 0.00 0.00 72 1015.7
20260504050459 50 312 0.0 0.0 0.00 0.00 0.00 77 1015.9
20260504044459 48 312 0.0 0.0 0.00 0.00 0.00 77 1015.8
20260504043459 48 312 0.0 0.0 0.00 0.00 0.00 76 1016.0
20260504042459 48 312 0.0 0.0 0.00 0.00 0.00 75 1015.9
20260504040459 47 312 0.0 0.0 0.00 0.00 0.00 75 1015.8
20260504035459 47 312 0.0 0.0 0.00 0.00 0.00 74 1015.8
20260504034529 47 312 0.0 0.0 0.00 0.00 0.00 73 1015.8
20260504033459 47 312 0.0 0.0 0.00 0.00 0.00 73 1015.6
20260504032459 47 312 0.0 0.0 0.00 0.00 0.00 74 1015.5
20260504031459 48 312 0.0 0.0 0.00 0.00 0.00 72 1015.5
20260504030459 48 312 0.0 0.0 0.00 0.00 0.00 72 1015.5
20260504025459 47 312 0.0 0.0 0.00 0.00 0.00 72 1015.4
20260504024459 47 312 0.0 0.0 0.00 0.00 0.00 71 1015.5
20260504023500 48 312 0.0 0.0 0.00 0.00 0.00 70 1015.5
20260504022459 48 312 0.0 0.0 0.00 0.00 0.00 69 1015.4
20260504020500 49 312 0.0 0.0 0.00 0.00 0.00 67 1015.3
20260504015500 49 312 0.0 0.0 0.00 0.00 0.00 67 1015.3
20260504014500 49 312 0.0 0.0 0.00 0.00 0.00 65 1015.3
20260504013500 50 312 0.0 0.0 0.00 0.00 0.00 66 1015.3
20260504012500 50 312 0.0 0.0 0.00 0.00 0.00 65 1015.2
20260504011500 50 312 0.0 0.0 0.00 0.00 0.00 64 1015.1
20260504010500 50 312 0.0 0.0 0.00 0.00 0.00 63 1015.0
20260504005459 51 312 0.0 0.0 0.00 0.00 0.00 62 1015.0
20260504004500 52 312 0.0 0.0 0.00 0.00 0.00 59 1014.9
20260504003500 52 312 0.0 0.0 0.00 0.00 0.00 56 1014.8
20260504002500 53 312 0.0 0.0 0.00 0.00 0.00 54 1014.7
20260504001500 54 312 0.0 0.0 0.00 0.00 0.00 51 1014.7
20260504000500 55 312 0.0 0.0 0.00 0.00 0.00 50 1014.6
20260503234500 57 312 0.0 0.0 0.00 0.00 0.00 45 1014.4
20260503233500 58 301 0.0 0.0 0.00 0.00 0.00 42 1014.3
20260503232500 59 275 0.0 1.7 0.00 0.00 0.00 37 1014.3
20260503231500 60 206 0.0 0.9 0.00 0.00 0.00 37 1014.3
20260503224445 61 286 0.0 2.6 0.00 0.00 0.00 35 1014.3
20260503223445 61 284 0.0 1.7 0.00 0.00 0.00 36 1014.4
20260503222445 61 262 1.7 2.6 0.00 0.00 0.00 35 1014.3
20260503221445 61 238 2.6 3.5 0.00 0.00 0.00 34 1014.4
20260503220351 61 215 2.6 2.6 0.00 0.00 0.00 34 1014.4
20260503215351 61 267 1.7 7.8 0.00 0.00 0.00 37 1014.4
20260503214351 62 250 1.7 2.6 0.00 0.00 0.00 35 1014.4
20260503213351 62 306 1.7 2.6 0.00 0.00 0.00 35 1014.4
20260503212351 62 211 0.0 6.1 0.00 0.00 0.00 34 1014.4
20260503211351 62 309 2.6 6.1 0.00 0.00 0.00 34 1014.2
20260503210351 62 302 0.9 2.6 0.00 0.00 0.00 36 1014.2
20260503204351 62 281 2.6 2.6 0.00 0.00 0.00 36 1014.1
20260503203351 62 290 0.9 3.5 0.00 0.00 0.00 34 1014.3
20260503202351 63 228 1.7 6.1 0.00 0.00 0.00 34 1014.4
20260503200351 62 277 0.0 1.7 0.00 0.00 0.00 37 1014.7
20260503195351 62 340 1.7 6.1 0.00 0.00 0.00 38 1015.0
20260503194421 61 285 0.0 5.2 0.00 0.00 0.00 34 1015.0
20260503193351 61 294 5.2 5.2 0.00 0.00 0.00 34 1015.1
20260503192351 61 207 1.7 2.6 0.00 0.00 0.00 38 1015.2
20260503191351 61 217 1.7 2.6 0.00 0.00 0.00 37 1015.3
20260503190351 60 181 5.2 5.2 0.00 0.00 0.00 34 1015.4
20260503184351 60 197 2.6 7.0 0.00 0.00 0.00 38 1015.7
20260503183351 61 300 2.6 7.8 0.00 0.00 0.00 39 1015.7
20260503182351 61 297 0.9 7.8 0.00 0.00 0.00 37 1015.6
20260503181351 60 35 3.5 5.2 0.00 0.00 0.00 38 1015.6
20260503180351 60 296 0.9 3.5 0.00 0.00 0.00 39 1015.8
20260503175351 59 339 5.2 7.8 0.00 0.00 0.00 38 1015.9
20260503174351 59 261 2.6 4.3 0.00 0.00 0.00 37 1015.8
20260503173351 58 306 1.7 5.2 0.00 0.00 0.00 40 1015.9
20260503172351 58 233 0.0 2.6 0.00 0.00 0.00 38 1016.1
20260503171351 58 316 1.7 2.6 0.00 0.00 0.00 42 1016.2
20260503170421 58 30 0.9 3.5 0.00 0.00 0.00 38 1016.3
20260503150421 52 321 4.3 6.1 0.00 0.00 0.00 44 1016.7
20260503131352 50 315 0.9 7.0 0.00 0.00 0.00 51 1016.9
20260503130351 49 46 2.6 4.3 0.00 0.00 0.00 52 1016.6